DateTimeUTC,F1_A11,F1_S11,BsB_S11,BsG_S11,BsR_S11,BbsB_S11,BbsG_S11,BbsR_S11,BaB_A11,BaG_A11,BaR_A11,Tu_S11,T_S11,Uu_S11,U_S11,P_S11,T1_A11
2021-08-24T09:00:00Z,00000200,20000000,,,,,,,0000.38,0000.43,0000.27,17.7,24.8,01.7,01.1,0681.0,30.9
2021-08-24T09:01:00Z,00000200,20000000,,,,,,,0000.05,0000.47,0000.11,17.7,24.8,01.7,01.1,0681.0,30.9
2021-08-24T09:02:00Z,00000200,20000000,,,,,,,0000.42,0000.18,0000.46,17.7,24.8,01.8,01.1,0681.0,30.9
2021-08-24T09:03:00Z,00000200,60000000,,,,,,,0000.44,0000.57,0000.37,17.7,24.8,02.0,01.3,0681.0,30.9
2021-08-24T09:04:00Z,00000200,40000000,0000.56,0000.35,0000.49,0000.80,0000.05,-000.16,0000.50,0000.01,-000.02,18.0,24.7,02.2,01.5,0682.0,30.9
2021-08-24T09:05:00Z,00000200,00000000,0000.57,0000.53,0000.29,-000.21,-000.07,-000.31,0000.31,0000.55,0000.44,18.1,24.7,02.4,01.6,0682.0,30.9
2021-08-24T09:06:00Z,00000200,00000000,0001.18,0000.58,0000.24,0000.55,0000.07,-000.04,0000.20,0000.44,-000.08,18.1,24.7,02.5,01.7,0682.1,30.9
2021-08-24T09:07:00Z,00000200,00000000,0001.10,0000.57,0000.08,0000.17,0000.35,0000.10,-000.27,0000.04,-000.12,18.1,24.7,02.6,01.7,0682.0,30.9
2021-08-24T09:08:00Z,00000200,00000000,0000.61,0000.62,0000.04,0000.42,0000.05,-000.11,0000.67,0000.02,0000.24,18.1,24.6,02.5,01.7,0682.0,30.9
2021-08-24T09:09:00Z,00000200,00000000,0000.45,0000.56,0000.41,0000.15,0000.03,0000.04,0000.24,0000.27,0000.30,18.0,24.6,02.6,01.8,0682.0,30.9
2021-08-24T09:10:00Z,00000200,00000000,0000.02,0000.70,0000.23,0000.10,0000.15,0000.01,0000.44,0000.47,0000.10,18.0,24.6,02.8,01.9,0682.0,30.9
2021-08-24T09:11:00Z,00000200,00000000,0001.02,0000.93,0000.40,0000.60,0000.21,0000.01,0000.07,-000.02,0000.16,18.0,24.6,02.8,01.9,0682.0,30.9
2021-08-24T09:12:00Z,00000200,00000000,0000.51,0000.55,0000.22,0000.29,0000.11,0000.27,0000.05,0000.27,0000.27,18.0,24.6,02.8,01.8,0682.0,30.9
2021-08-24T09:13:00Z,00000200,00000000,0001.45,0000.66,0000.56,-000.44,0000.06,-000.06,0000.37,0000.37,0000.25,18.0,24.5,02.7,01.8,0682.0,30.9
2021-08-24T09:14:00Z,00000200,00000000,0000.77,0000.39,0000.46,0000.24,0000.45,-000.21,0000.39,0000.23,0000.18,17.9,24.6,02.8,01.9,0682.0,30.9
2021-08-24T09:15:00Z,00000200,00000000,0000.32,0000.70,0000.28,0000.70,0000.09,0000.04,0000.21,0000.21,0000.23,17.9,24.5,02.9,02.0,0682.0,30.9
2021-08-24T09:16:00Z,00000200,00000000,0001.03,0000.53,0000.52,0000.35,0000.22,0000.00,0000.66,0000.20,0000.41,17.9,24.5,03.0,02.0,0682.0,30.9
2021-08-24T09:17:00Z,00000200,00000000,0001.36,0000.89,0000.64,0000.16,0000.04,-000.11,0000.71,0000.66,0000.47,17.9,24.5,03.0,02.0,0682.0,30.9
2021-08-24T09:18:00Z,00000200,00000000,0000.85,0000.86,0000.78,-000.09,0000.13,-000.06,0000.03,0000.38,0000.01,18.0,24.5,03.0,02.0,0682.0,30.9
2021-08-24T09:19:00Z,00000200,00000000,0001.28,0000.72,0000.31,0000.02,0000.18,0000.12,-000.03,-000.05,0000.19,18.1,24.6,02.9,02.0,0682.0,30.9
2021-08-24T09:20:00Z,00000200,00000000,0000.44,0001.20,0000.56,0000.30,-000.13,0000.16,0000.48,0000.66,-000.01,18.1,24.6,02.9,02.0,0682.1,30.9
2021-08-24T09:21:00Z,00000200,00000000,0001.70,0000.96,0000.78,0000.48,0000.05,0000.33,0000.28,-000.12,0000.40,18.2,24.6,03.0,02.0,0682.1,30.9
2021-08-24T09:22:00Z,00000200,00000000,0001.30,0000.93,0000.46,-000.55,0000.05,-000.04,0000.40,0000.36,0000.40,18.2,24.6,03.0,02.0,0682.1,30.9
2021-08-24T09:23:00Z,00000200,00000000,0000.87,0000.99,0000.49,0000.10,0000.22,-000.09,0000.13,0000.30,-000.27,18.1,24.6,03.0,02.0,0682.1,30.9
2021-08-24T09:24:00Z,00000200,00000000,0000.85,0001.08,0000.53,0000.05,0000.26,-000.06,0000.41,0000.31,0000.33,18.1,24.6,03.1,02.1,0682.1,30.9
2021-08-24T09:25:00Z,00000200,00000000,0001.34,0001.25,0000.87,0000.06,0000.07,0000.02,0000.39,0000.33,0000.24,18.1,24.6,03.1,02.1,0682.1,30.9
2021-08-24T09:26:00Z,00000200,00000000,0001.90,0001.28,0000.81,0000.04,0000.28,0000.15,0000.44,0000.27,0000.58,18.1,24.6,03.1,02.1,0682.1,30.9
2021-08-24T09:27:00Z,00000200,00000000,0001.00,0000.83,0000.71,-000.36,0000.18,0000.27,0000.55,0001.20,0000.27,18.1,24.6,03.3,02.2,0682.1,30.9
2021-08-24T09:28:00Z,00000200,00000000,0000.92,0001.01,0000.36,0000.87,0000.19,-000.00,0000.38,0000.01,0000.14,18.0,24.6,03.3,02.2,0682.1,30.9
2021-08-24T09:29:00Z,00000200,00000000,0000.77,0000.65,0000.40,0000.31,0000.33,0000.10,0000.22,0000.27,0000.47,18.0,24.6,03.4,02.3,0682.1,30.9
2021-08-24T09:30:00Z,00000200,00000000,0000.75,0000.98,0000.39,0000.84,0000.41,0000.00,0000.58,0000.27,0000.11,18.0,24.5,03.4,02.3,0682.0,30.9
2021-08-24T09:31:00Z,00000200,00000000,0001.52,0001.07,0000.66,0000.17,0000.17,-000.18,0000.46,0000.46,0000.80,18.0,24.5,03.5,02.3,0682.0,30.9
2021-08-24T09:32:00Z,00000200,00000000,0000.77,0000.88,0000.45,0000.70,0000.33,0000.23,0000.69,0000.71,0000.28,18.0,24.5,03.6,02.4,0682.0,30.9
2021-08-24T09:33:00Z,00000200,00000000,0001.31,0001.19,0000.67,0000.17,0000.07,0000.28,0000.34,0000.24,0000.10,18.1,24.6,03.5,02.4,0682.0,30.9
2021-08-24T09:34:00Z,00000200,00000000,0001.85,0001.20,0001.02,0000.05,-000.02,0000.22,0000.05,-000.11,0000.29,18.2,24.6,03.6,02.4,0682.0,30.9
2021-08-24T09:35:00Z,00000200,00000000,0001.40,0001.28,0000.82,-000.12,0000.50,-000.17,0000.67,0000.88,0000.24,18.2,24.6,03.5,02.4,0682.0,30.9
2021-08-24T09:36:00Z,00000200,00000000,0002.31,0001.35,0000.60,-000.15,0000.33,-000.22,0000.55,0000.54,0000.36,18.2,24.6,03.5,02.4,0682.0,30.9
2021-08-24T09:37:00Z,00000200,00000000,0001.65,0001.27,0000.93,0000.40,0000.47,-000.04,0000.22,0000.14,0000.14,18.2,24.6,03.5,02.3,0681.9,30.9
2021-08-24T09:38:00Z,00000200,00000000,0000.79,0001.59,0000.69,0000.51,0000.36,-000.13,0000.69,0000.32,0000.21,18.2,24.6,03.5,02.4,0681.9,30.9
2021-08-24T09:39:00Z,00000200,00000000,0001.90,0001.26,0000.90,0000.81,0000.71,-000.02,0000.43,0000.46,0000.65,18.2,24.6,03.8,02.6,0681.8,30.9
2021-08-24T09:40:00Z,00000200,00000000,0001.51,0001.31,0000.89,0000.54,0000.41,-000.12,0000.30,0000.52,-000.15,18.2,24.6,03.8,02.5,0681.8,30.9
2021-08-24T09:41:00Z,00000200,00000000,0001.61,0001.71,0000.66,0000.38,0000.44,-000.13,0000.49,0000.36,0000.84,18.1,24.6,03.9,02.6,0681.8,30.9
2021-08-24T09:42:00Z,00000200,00000000,0001.44,0001.31,0000.96,0000.70,0000.20,0000.11,0000.78,0000.44,0000.35,18.1,24.6,04.0,02.7,0681.7,30.9
2021-08-24T09:43:00Z,00000200,00000000,0001.86,0001.24,0001.13,0000.60,0000.24,0000.17,0000.28,0000.73,0000.18,18.1,24.6,03.9,02.6,0681.8,30.9
2021-08-24T09:44:00Z,00000200,00000000,0002.21,0002.01,0000.99,0000.48,0000.23,0000.02,0000.25,-000.16,0000.28,18.1,24.6,04.0,02.7,0681.8,30.9
2021-08-24T09:45:00Z,00000200,00000000,0002.08,0002.03,0001.05,-000.16,0000.31,0000.10,0000.35,0000.46,0000.27,18.1,24.6,03.9,02.6,0681.8,30.9
2021-08-24T09:46:00Z,00000200,00000000,0002.64,0001.98,0000.98,0000.55,-000.02,-000.05,0000.54,0000.53,0000.24,18.1,24.5,03.8,02.6,0681.9,30.9
2021-08-24T09:47:00Z,00000200,00000000,0002.25,0001.65,0001.00,0000.61,0000.21,-000.02,0000.31,0000.49,0000.36,18.1,24.5,03.9,02.6,0681.9,30.9
2021-08-24T09:48:00Z,00000200,00000000,0002.27,0002.05,0001.48,0000.40,0000.39,0000.26,0000.47,0000.13,0000.41,18.1,24.5,03.8,02.6,0681.9,30.9
2021-08-24T09:49:00Z,00000200,00000000,0002.01,0001.81,0001.00,0000.66,0000.37,0000.30,0000.68,0000.66,0000.22,18.1,24.5,03.8,02.6,0681.8,30.9
2021-08-24T09:50:00Z,00000200,00000000,0002.43,0002.01,0001.57,-000.16,0000.22,0000.21,0000.76,0000.54,0000.68,18.0,24.5,03.9,02.6,0681.8,30.9
2021-08-24T09:51:00Z,00000200,00000000,0001.37,0001.78,0001.38,-000.09,0000.30,-000.17,0000.71,0000.83,0000.43,18.0,24.5,03.9,02.7,0681.8,30.9
2021-08-24T09:52:00Z,00000200,00000000,0001.66,0001.66,0001.27,-000.43,0000.28,0000.05,0000.59,0000.43,0000.67,18.0,24.5,04.2,02.8,0681.7,30.9
2021-08-24T09:53:00Z,00000200,00000000,0002.65,0001.98,0000.90,0000.46,0000.44,-000.10,0000.17,0000.28,0000.04,18.0,24.5,04.1,02.7,0681.7,30.9
2021-08-24T09:54:00Z,00000200,00000000,0002.67,0001.54,0001.22,0000.43,0000.41,-000.13,0000.58,0000.63,0000.32,18.0,24.5,04.0,02.7,0681.7,30.9
2021-08-24T09:55:00Z,00000200,00000000,0002.47,0002.03,0001.41,0000.12,0000.21,-000.06,0000.46,0000.51,-000.05,18.0,24.5,04.0,02.7,0681.7,30.9
2021-08-24T09:56:00Z,00000200,00000000,0002.44,0001.93,0001.34,0000.47,0000.31,0000.20,0000.60,0000.46,0000.89,18.0,24.5,03.9,02.6,0681.7,30.9
2021-08-24T09:57:00Z,00000200,40000000,,,,,,,-000.51,-000.71,-000.71,18.0,24.5,03.9,02.6,0681.8,30.9
2021-08-24T09:58:00Z,00000200,60000000,,,,,,,0000.06,0000.14,0000.42,17.7,24.6,03.4,02.2,0680.7,30.9
2021-08-24T09:59:00Z,00000200,20000000,,,,,,,0000.34,0000.18,-000.05,17.7,24.7,03.4,02.2,0680.6,30.9
